CCSDS_OMM_VERS = 2.0 CREATION_DATE = ORIGINATOR = OBJECT_NAME = COSMOS 2433 (720) OBJECT_ID = 2007-052A CENTER_NAME = EARTH REF_FRAME = TEME TIME_SYSTEM = UTC MEAN_ELEMENT_THEORY = SGP/SGP4 EPOCH = 2026-09-12T04:44:32.349696 MEAN_MOTION = 2.13104026 ECCENTRICITY = .00053973 INCLINATION = 65.5225 RA_OF_ASC_NODE = 313.0027 ARG_OF_PERICENTER = 223.8548 MEAN_ANOMALY = 136.1798 EPHEMERIS_TYPE = 0 CLASSIFICATION_TYPE = U NORAD_CAT_ID = 32275 ELEMENT_SET_NO = 999 REV_AT_EPOCH = 14691 BSTAR = 0 MEAN_MOTION_DOT = -.45000E-6 MEAN_MOTION_DDOT = 0 CCSDS_OMM_VERS = 2.0 CREATION_DATE = ORIGINATOR = OBJECT_NAME = COSMOS 2432 (719) OBJECT_ID = 2007-052B CENTER_NAME = EARTH REF_FRAME = TEME TIME_SYSTEM = UTC MEAN_ELEMENT_THEORY = SGP/SGP4 EPOCH = 2026-09-12T06:26:39.689088 MEAN_MOTION = 2.13103011 ECCENTRICITY = .00086266 INCLINATION = 65.5383 RA_OF_ASC_NODE = 313.1296 ARG_OF_PERICENTER = 307.5173 MEAN_ANOMALY = 50.4881 EPHEMERIS_TYPE = 0 CLASSIFICATION_TYPE = U NORAD_CAT_ID = 32276 ELEMENT_SET_NO = 999 REV_AT_EPOCH = 14693 BSTAR = 0 MEAN_MOTION_DOT = -.46000E-6 MEAN_MOTION_DDOT = 0 CCSDS_OMM_VERS = 2.0 CREATION_DATE = ORIGINATOR = OBJECT_NAME = COSMOS 2434 (721) OBJECT_ID = 2007-065A CENTER_NAME = EARTH REF_FRAME = TEME TIME_SYSTEM = UTC MEAN_ELEMENT_THEORY = SGP/SGP4 EPOCH = 2026-09-09T05:20:25.031616 MEAN_MOTION = 2.13101148 ECCENTRICITY = .00014809 INCLINATION = 64.3196 RA_OF_ASC_NODE = 189.0826 ARG_OF_PERICENTER = 28.961 MEAN_ANOMALY = 98.0835 EPHEMERIS_TYPE = 0 CLASSIFICATION_TYPE = U NORAD_CAT_ID = 32393 ELEMENT_SET_NO = 999 REV_AT_EPOCH = 14556 BSTAR = 0 MEAN_MOTION_DOT = -.20000E-6 MEAN_MOTION_DDOT = 0 CCSDS_OMM_VERS = 2.0 CREATION_DATE = ORIGINATOR = OBJECT_NAME = COSMOS 2436 (723) OBJECT_ID = 2007-065C CENTER_NAME = EARTH REF_FRAME = TEME TIME_SYSTEM = UTC MEAN_ELEMENT_THEORY = SGP/SGP4 EPOCH = 2026-09-12T04:29:18.377664 MEAN_MOTION = 2.13099789 ECCENTRICITY = .00174364 INCLINATION = 64.328 RA_OF_ASC_NODE = 189.056 ARG_OF_PERICENTER = 358.7557 MEAN_ANOMALY = 14.4716 EPHEMERIS_TYPE = 0 CLASSIFICATION_TYPE = U NORAD_CAT_ID = 32395 ELEMENT_SET_NO = 999 REV_AT_EPOCH = 14558 BSTAR = 0 MEAN_MOTION_DOT = .40000E-7 MEAN_MOTION_DDOT = 0 CCSDS_OMM_VERS = 2.0 CREATION_DATE = ORIGINATOR = OBJECT_NAME = COSMOS 2456 (730) OBJECT_ID = 2009-070A CENTER_NAME = EARTH REF_FRAME = TEME TIME_SYSTEM = UTC MEAN_ELEMENT_THEORY = SGP/SGP4 EPOCH = 2026-09-06T17:38:08.644992 MEAN_MOTION = 2.13103422 ECCENTRICITY = .00018509 INCLINATION = 65.0634 RA_OF_ASC_NODE = 68.1929 ARG_OF_PERICENTER = 353.7024 MEAN_ANOMALY = 183.4854 EPHEMERIS_TYPE = 0 CLASSIFICATION_TYPE = U NORAD_CAT_ID = 36111 ELEMENT_SET_NO = 999 REV_AT_EPOCH = 13016 BSTAR = 0 MEAN_MOTION_DOT = .37000E-6 MEAN_MOTION_DDOT = 0 CCSDS_OMM_VERS = 2.0 CREATION_DATE = ORIGINATOR = OBJECT_NAME = COSMOS 2457 (733) OBJECT_ID = 2009-070B CENTER_NAME = EARTH REF_FRAME = TEME TIME_SYSTEM = UTC MEAN_ELEMENT_THEORY = SGP/SGP4 EPOCH = 2026-09-11T23:02:52.074816 MEAN_MOTION = 2.13100816 ECCENTRICITY = .0005855 INCLINATION = 65.0524 RA_OF_ASC_NODE = 67.857 ARG_OF_PERICENTER = 130.4391 MEAN_ANOMALY = 222.2066 EPHEMERIS_TYPE = 0 CLASSIFICATION_TYPE = U NORAD_CAT_ID = 36112 ELEMENT_SET_NO = 999 REV_AT_EPOCH = 13027 BSTAR = 0 MEAN_MOTION_DOT = -.30000E-7 MEAN_MOTION_DDOT = 0 CCSDS_OMM_VERS = 2.0 CREATION_DATE = ORIGINATOR = OBJECT_NAME = COSMOS 2460 (732) OBJECT_ID = 2010-007C CENTER_NAME = EARTH REF_FRAME = TEME TIME_SYSTEM = UTC MEAN_ELEMENT_THEORY = SGP/SGP4 EPOCH = 2026-09-08T05:02:36.878784 MEAN_MOTION = 2.1310157 ECCENTRICITY = .0002316 INCLINATION = 65.3677 RA_OF_ASC_NODE = 311.655 ARG_OF_PERICENTER = 209.5113 MEAN_ANOMALY = 148.1159 EPHEMERIS_TYPE = 0 CLASSIFICATION_TYPE = U NORAD_CAT_ID = 36402 ELEMENT_SET_NO = 999 REV_AT_EPOCH = 12849 BSTAR = 0 MEAN_MOTION_DOT = -.27000E-6 MEAN_MOTION_DDOT = 0 CCSDS_OMM_VERS = 2.0 CREATION_DATE = ORIGINATOR = OBJECT_NAME = COSMOS 2476 (744) OBJECT_ID = 2011-064A CENTER_NAME = EARTH REF_FRAME = TEME TIME_SYSTEM = UTC MEAN_ELEMENT_THEORY = SGP/SGP4 EPOCH = 2026-09-11T02:21:04.834368 MEAN_MOTION = 2.1310367 ECCENTRICITY = .0022536 INCLINATION = 65.3238 RA_OF_ASC_NODE = 69.9735 ARG_OF_PERICENTER = 230.7215 MEAN_ANOMALY = 322.0571 EPHEMERIS_TYPE = 0 CLASSIFICATION_TYPE = U NORAD_CAT_ID = 37867 ELEMENT_SET_NO = 999 REV_AT_EPOCH = 11559 BSTAR = 0 MEAN_MOTION_DOT = .10000E-6 MEAN_MOTION_DDOT = 0 CCSDS_OMM_VERS = 2.0 CREATION_DATE = ORIGINATOR = OBJECT_NAME = COSMOS 2477 (745) OBJECT_ID = 2011-064B CENTER_NAME = EARTH REF_FRAME = TEME TIME_SYSTEM = UTC MEAN_ELEMENT_THEORY = SGP/SGP4 EPOCH = 2026-09-12T06:10:18.757056 MEAN_MOTION = 2.1310257 ECCENTRICITY = .0019299 INCLINATION = 65.3304 RA_OF_ASC_NODE = 70.0147 ARG_OF_PERICENTER = 230.8178 MEAN_ANOMALY = 311.3238 EPHEMERIS_TYPE = 0 CLASSIFICATION_TYPE = U NORAD_CAT_ID = 37868 ELEMENT_SET_NO = 999 REV_AT_EPOCH = 11561 BSTAR = 0 MEAN_MOTION_DOT = -.10000E-7 MEAN_MOTION_DDOT = 0 CCSDS_OMM_VERS = 2.0 CREATION_DATE = ORIGINATOR = OBJECT_NAME = COSMOS 2475 (743) OBJECT_ID = 2011-064C CENTER_NAME = EARTH REF_FRAME = TEME TIME_SYSTEM = UTC MEAN_ELEMENT_THEORY = SGP/SGP4 EPOCH = 2026-09-12T05:24:03.074976 MEAN_MOTION = 2.13101319 ECCENTRICITY = .00244983 INCLINATION = 65.3375 RA_OF_ASC_NODE = 70.0384 ARG_OF_PERICENTER = 246.3694 MEAN_ANOMALY = 225.874 EPHEMERIS_TYPE = 0 CLASSIFICATION_TYPE = U NORAD_CAT_ID = 37869 ELEMENT_SET_NO = 999 REV_AT_EPOCH = 11562 BSTAR = 0 MEAN_MOTION_DOT = 0 MEAN_MOTION_DDOT = 0 CCSDS_OMM_VERS = 2.0 CREATION_DATE = ORIGINATOR = OBJECT_NAME = COSMOS 2485 (747) OBJECT_ID = 2013-019A CENTER_NAME = EARTH REF_FRAME = TEME TIME_SYSTEM = UTC MEAN_ELEMENT_THEORY = SGP/SGP4 EPOCH = 2026-09-07T23:15:10.086336 MEAN_MOTION = 2.1310293 ECCENTRICITY = .00229693 INCLINATION = 65.4699 RA_OF_ASC_NODE = 70.8288 ARG_OF_PERICENTER = 226.3838 MEAN_ANOMALY = 133.4785 EPHEMERIS_TYPE = 0 CLASSIFICATION_TYPE = U NORAD_CAT_ID = 39155 ELEMENT_SET_NO = 999 REV_AT_EPOCH = 10404 BSTAR = 0 MEAN_MOTION_DOT = .39000E-6 MEAN_MOTION_DDOT = 0 CCSDS_OMM_VERS = 2.0 CREATION_DATE = ORIGINATOR = OBJECT_NAME = COSMOS 2492 (754) OBJECT_ID = 2014-012A CENTER_NAME = EARTH REF_FRAME = TEME TIME_SYSTEM = UTC MEAN_ELEMENT_THEORY = SGP/SGP4 EPOCH = 2026-09-10T17:50:25.096992 MEAN_MOTION = 2.13103162 ECCENTRICITY = .00115371 INCLINATION = 65.2426 RA_OF_ASC_NODE = 311.0251 ARG_OF_PERICENTER = 307.9222 MEAN_ANOMALY = 52.0528 EPHEMERIS_TYPE = 0 CLASSIFICATION_TYPE = U NORAD_CAT_ID = 39620 ELEMENT_SET_NO = 999 REV_AT_EPOCH = 9706 BSTAR = 0 MEAN_MOTION_DOT = -.34000E-6 MEAN_MOTION_DDOT = 0 CCSDS_OMM_VERS = 2.0 CREATION_DATE = ORIGINATOR = OBJECT_NAME = COSMOS 2500 (755) OBJECT_ID = 2014-032A CENTER_NAME = EARTH REF_FRAME = TEME TIME_SYSTEM = UTC MEAN_ELEMENT_THEORY = SGP/SGP4 EPOCH = 2026-09-08T02:18:57.301920 MEAN_MOTION = 2.13105882 ECCENTRICITY = .00094804 INCLINATION = 65.1795 RA_OF_ASC_NODE = 310.8561 ARG_OF_PERICENTER = 202.9458 MEAN_ANOMALY = 157.0874 EPHEMERIS_TYPE = 0 CLASSIFICATION_TYPE = U NORAD_CAT_ID = 40001 ELEMENT_SET_NO = 999 REV_AT_EPOCH = 9522 BSTAR = 0 MEAN_MOTION_DOT = -.26000E-6 MEAN_MOTION_DDOT = 0 CCSDS_OMM_VERS = 2.0 CREATION_DATE = ORIGINATOR = OBJECT_NAME = COSMOS 2501 (702K) OBJECT_ID = 2014-075A CENTER_NAME = EARTH REF_FRAME = TEME TIME_SYSTEM = UTC MEAN_ELEMENT_THEORY = SGP/SGP4 EPOCH = 2026-09-11T15:27:54.239328 MEAN_MOTION = 2.13101274 ECCENTRICITY = .00221915 INCLINATION = 63.6173 RA_OF_ASC_NODE = 187.3806 ARG_OF_PERICENTER = 210.5501 MEAN_ANOMALY = 149.3143 EPHEMERIS_TYPE = 0 CLASSIFICATION_TYPE = U NORAD_CAT_ID = 40315 ELEMENT_SET_NO = 999 REV_AT_EPOCH = 9169 BSTAR = 0 MEAN_MOTION_DOT = -.20000E-7 MEAN_MOTION_DDOT = 0 CCSDS_OMM_VERS = 2.0 CREATION_DATE = ORIGINATOR = OBJECT_NAME = COSMOS 2514 (751) OBJECT_ID = 2016-008A CENTER_NAME = EARTH REF_FRAME = TEME TIME_SYSTEM = UTC MEAN_ELEMENT_THEORY = SGP/SGP4 EPOCH = 2026-09-11T15:05:51.976320 MEAN_MOTION = 2.13102586 ECCENTRICITY = .00137081 INCLINATION = 64.9655 RA_OF_ASC_NODE = 310.0358 ARG_OF_PERICENTER = 209.9478 MEAN_ANOMALY = 150.0521 EPHEMERIS_TYPE = 0 CLASSIFICATION_TYPE = U NORAD_CAT_ID = 41330 ELEMENT_SET_NO = 999 REV_AT_EPOCH = 8246 BSTAR = 0 MEAN_MOTION_DOT = -.38000E-6 MEAN_MOTION_DDOT = 0 CCSDS_OMM_VERS = 2.0 CREATION_DATE = ORIGINATOR = OBJECT_NAME = COSMOS 2522 (752) OBJECT_ID = 2017-055A CENTER_NAME = EARTH REF_FRAME = TEME TIME_SYSTEM = UTC MEAN_ELEMENT_THEORY = SGP/SGP4 EPOCH = 2026-09-10T23:56:04.933248 MEAN_MOTION = 2.13101798 ECCENTRICITY = .00095759 INCLINATION = 64.08 RA_OF_ASC_NODE = 188.9651 ARG_OF_PERICENTER = 237.0189 MEAN_ANOMALY = 122.877 EPHEMERIS_TYPE = 0 CLASSIFICATION_TYPE = U NORAD_CAT_ID = 42939 ELEMENT_SET_NO = 999 REV_AT_EPOCH = 6980 BSTAR = 0 MEAN_MOTION_DOT = -.80000E-7 MEAN_MOTION_DDOT = 0 CCSDS_OMM_VERS = 2.0 CREATION_DATE = ORIGINATOR = OBJECT_NAME = COSMOS 2527 (756) OBJECT_ID = 2018-053A CENTER_NAME = EARTH REF_FRAME = TEME TIME_SYSTEM = UTC MEAN_ELEMENT_THEORY = SGP/SGP4 EPOCH = 2026-09-11T21:33:15.263712 MEAN_MOTION = 2.13101861 ECCENTRICITY = .00070004 INCLINATION = 65.6302 RA_OF_ASC_NODE = 71.0175 ARG_OF_PERICENTER = 213.4884 MEAN_ANOMALY = 146.5036 EPHEMERIS_TYPE = 0 CLASSIFICATION_TYPE = U NORAD_CAT_ID = 43508 ELEMENT_SET_NO = 999 REV_AT_EPOCH = 6412 BSTAR = 0 MEAN_MOTION_DOT = .50000E-7 MEAN_MOTION_DDOT = 0 CCSDS_OMM_VERS = 2.0 CREATION_DATE = ORIGINATOR = OBJECT_NAME = COSMOS 2529 (757) OBJECT_ID = 2018-086A CENTER_NAME = EARTH REF_FRAME = TEME TIME_SYSTEM = UTC MEAN_ELEMENT_THEORY = SGP/SGP4 EPOCH = 2026-09-11T01:19:57.673632 MEAN_MOTION = 2.13101834 ECCENTRICITY = .00106608 INCLINATION = 64.2963 RA_OF_ASC_NODE = 189.6966 ARG_OF_PERICENTER = 254.9299 MEAN_ANOMALY = 104.9393 EPHEMERIS_TYPE = 0 CLASSIFICATION_TYPE = U NORAD_CAT_ID = 43687 ELEMENT_SET_NO = 999 REV_AT_EPOCH = 6111 BSTAR = 0 MEAN_MOTION_DOT = -.80000E-7 MEAN_MOTION_DDOT = 0 CCSDS_OMM_VERS = 2.0 CREATION_DATE = ORIGINATOR = OBJECT_NAME = COSMOS 2534 (758) OBJECT_ID = 2019-030A CENTER_NAME = EARTH REF_FRAME = TEME TIME_SYSTEM = UTC MEAN_ELEMENT_THEORY = SGP/SGP4 EPOCH = 2026-09-08T07:03:58.896288 MEAN_MOTION = 2.13102149 ECCENTRICITY = .0012038 INCLINATION = 64.3699 RA_OF_ASC_NODE = 189.8198 ARG_OF_PERICENTER = 275.8196 MEAN_ANOMALY = 260.4578 EPHEMERIS_TYPE = 0 CLASSIFICATION_TYPE = U NORAD_CAT_ID = 44299 ELEMENT_SET_NO = 999 REV_AT_EPOCH = 5669 BSTAR = 0 MEAN_MOTION_DOT = -.19000E-6 MEAN_MOTION_DDOT = 0 CCSDS_OMM_VERS = 2.0 CREATION_DATE = ORIGINATOR = OBJECT_NAME = COSMOS 2544 (759) OBJECT_ID = 2019-088A CENTER_NAME = EARTH REF_FRAME = TEME TIME_SYSTEM = UTC MEAN_ELEMENT_THEORY = SGP/SGP4 EPOCH = 2026-09-10T21:41:39.937344 MEAN_MOTION = 2.13102659 ECCENTRICITY = .0011883 INCLINATION = 65.6173 RA_OF_ASC_NODE = 70.8727 ARG_OF_PERICENTER = 245.7348 MEAN_ANOMALY = 114.1821 EPHEMERIS_TYPE = 0 CLASSIFICATION_TYPE = U NORAD_CAT_ID = 44850 ELEMENT_SET_NO = 999 REV_AT_EPOCH = 5254 BSTAR = 0 MEAN_MOTION_DOT = .15000E-6 MEAN_MOTION_DDOT = 0 CCSDS_OMM_VERS = 2.0 CREATION_DATE = ORIGINATOR = OBJECT_NAME = COSMOS 2545 (760) OBJECT_ID = 2020-018A CENTER_NAME = EARTH REF_FRAME = TEME TIME_SYSTEM = UTC MEAN_ELEMENT_THEORY = SGP/SGP4 EPOCH = 2026-09-11T02:22:22.278144 MEAN_MOTION = 2.13102362 ECCENTRICITY = .0011763 INCLINATION = 64.2987 RA_OF_ASC_NODE = 309.3957 ARG_OF_PERICENTER = 235.3288 MEAN_ANOMALY = 124.6388 EPHEMERIS_TYPE = 0 CLASSIFICATION_TYPE = U NORAD_CAT_ID = 45358 ELEMENT_SET_NO = 999 REV_AT_EPOCH = 5049 BSTAR = 0 MEAN_MOTION_DOT = -.36000E-6 MEAN_MOTION_DDOT = 0 CCSDS_OMM_VERS = 2.0 CREATION_DATE = ORIGINATOR = OBJECT_NAME = COSMOS 2547 (705K) OBJECT_ID = 2020-075A CENTER_NAME = EARTH REF_FRAME = TEME TIME_SYSTEM = UTC MEAN_ELEMENT_THEORY = SGP/SGP4 EPOCH = 2026-09-11T18:12:09.302400 MEAN_MOTION = 2.13099687 ECCENTRICITY = .00085533 INCLINATION = 64.6008 RA_OF_ASC_NODE = 189.588 ARG_OF_PERICENTER = 236.4821 MEAN_ANOMALY = 123.427 EPHEMERIS_TYPE = 0 CLASSIFICATION_TYPE = U NORAD_CAT_ID = 46805 ELEMENT_SET_NO = 999 REV_AT_EPOCH = 4575 BSTAR = 0 MEAN_MOTION_DOT = 0 MEAN_MOTION_DDOT = 0 CCSDS_OMM_VERS = 2.0 CREATION_DATE = ORIGINATOR = OBJECT_NAME = COSMOS 2557 (706K) OBJECT_ID = 2022-075A CENTER_NAME = EARTH REF_FRAME = TEME TIME_SYSTEM = UTC MEAN_ELEMENT_THEORY = SGP/SGP4 EPOCH = 2026-09-11T22:07:46.771968 MEAN_MOTION = 2.13102028 ECCENTRICITY = .00125206 INCLINATION = 64.2422 RA_OF_ASC_NODE = 311.4262 ARG_OF_PERICENTER = 269.0241 MEAN_ANOMALY = 90.9097 EPHEMERIS_TYPE = 0 CLASSIFICATION_TYPE = U NORAD_CAT_ID = 52984 ELEMENT_SET_NO = 999 REV_AT_EPOCH = 3256 BSTAR = 0 MEAN_MOTION_DOT = -.44000E-6 MEAN_MOTION_DDOT = 0 CCSDS_OMM_VERS = 2.0 CREATION_DATE = ORIGINATOR = OBJECT_NAME = COSMOS 2559 (707K) OBJECT_ID = 2022-130A CENTER_NAME = EARTH REF_FRAME = TEME TIME_SYSTEM = UTC MEAN_ELEMENT_THEORY = SGP/SGP4 EPOCH = 2026-09-11T06:32:36.649824 MEAN_MOTION = 2.13101663 ECCENTRICITY = .00135086 INCLINATION = 64.2155 RA_OF_ASC_NODE = 311.5293 ARG_OF_PERICENTER = 187.9833 MEAN_ANOMALY = 172.0726 EPHEMERIS_TYPE = 0 CLASSIFICATION_TYPE = U NORAD_CAT_ID = 54031 ELEMENT_SET_NO = 999 REV_AT_EPOCH = 3052 BSTAR = 0 MEAN_MOTION_DOT = -.40000E-6 MEAN_MOTION_DDOT = 0 CCSDS_OMM_VERS = 2.0 CREATION_DATE = ORIGINATOR = OBJECT_NAME = COSMOS 2564 (761) OBJECT_ID = 2022-161A CENTER_NAME = EARTH REF_FRAME = TEME TIME_SYSTEM = UTC MEAN_ELEMENT_THEORY = SGP/SGP4 EPOCH = 2026-09-12T01:17:54.509568 MEAN_MOTION = 2.1310203 ECCENTRICITY = .00110016 INCLINATION = 64.7428 RA_OF_ASC_NODE = 189.8304 ARG_OF_PERICENTER = 219.0104 MEAN_ANOMALY = 140.9023 EPHEMERIS_TYPE = 0 CLASSIFICATION_TYPE = U NORAD_CAT_ID = 54377 ELEMENT_SET_NO = 999 REV_AT_EPOCH = 2948 BSTAR = 0 MEAN_MOTION_DOT = .30000E-7 MEAN_MOTION_DDOT = 0 CCSDS_OMM_VERS = 2.0 CREATION_DATE = ORIGINATOR = OBJECT_NAME = COSMOS 2569 (703K) OBJECT_ID = 2023-114A CENTER_NAME = EARTH REF_FRAME = TEME TIME_SYSTEM = UTC MEAN_ELEMENT_THEORY = SGP/SGP4 EPOCH = 2026-09-12T01:35:18.827232 MEAN_MOTION = 2.13102544 ECCENTRICITY = .00085698 INCLINATION = 65.3568 RA_OF_ASC_NODE = 69.6932 ARG_OF_PERICENTER = 289.2479 MEAN_ANOMALY = 70.6925 EPHEMERIS_TYPE = 0 CLASSIFICATION_TYPE = U NORAD_CAT_ID = 57517 ELEMENT_SET_NO = 999 REV_AT_EPOCH = 2411 BSTAR = 0 MEAN_MOTION_DOT = 0 MEAN_MOTION_DDOT = 0 CCSDS_OMM_VERS = 2.0 CREATION_DATE = ORIGINATOR = OBJECT_NAME = COSMOS 2584 (704K) OBJECT_ID = 2025-042A CENTER_NAME = EARTH REF_FRAME = TEME TIME_SYSTEM = UTC MEAN_ELEMENT_THEORY = SGP/SGP4 EPOCH = 2026-09-11T22:52:06.524256 MEAN_MOTION = 2.1310348 ECCENTRICITY = .0006381 INCLINATION = 65.1394 RA_OF_ASC_NODE = 69.8549 ARG_OF_PERICENTER = 202.7942 MEAN_ANOMALY = 157.2117 EPHEMERIS_TYPE = 0 CLASSIFICATION_TYPE = U NORAD_CAT_ID = 63130 ELEMENT_SET_NO = 999 REV_AT_EPOCH = 1189 BSTAR = 0 MEAN_MOTION_DOT = .10000E-7 MEAN_MOTION_DDOT = 0 CCSDS_OMM_VERS = 2.0 CREATION_DATE = ORIGINATOR = OBJECT_NAME = COSMOS 2596 (708K) OBJECT_ID = 2025-206B CENTER_NAME = EARTH REF_FRAME = TEME TIME_SYSTEM = UTC MEAN_ELEMENT_THEORY = SGP/SGP4 EPOCH = 2026-09-12T06:26:17.225088 MEAN_MOTION = 2.13100809 ECCENTRICITY = .00123316 INCLINATION = 64.5787 RA_OF_ASC_NODE = 311.9496 ARG_OF_PERICENTER = 301.9191 MEAN_ANOMALY = 55.4949 EPHEMERIS_TYPE = 0 CLASSIFICATION_TYPE = U NORAD_CAT_ID = 65590 ELEMENT_SET_NO = 999 REV_AT_EPOCH = 776 BSTAR = 0 MEAN_MOTION_DOT = -.46000E-6 MEAN_MOTION_DDOT = 0 CCSDS_OMM_VERS = 2.0 CREATION_DATE = ORIGINATOR = OBJECT_NAME = COSMOS 2619 OBJECT_ID = 2026-194A CENTER_NAME = EARTH REF_FRAME = TEME TIME_SYSTEM = UTC MEAN_ELEMENT_THEORY = SGP/SGP4 EPOCH = 2026-09-03T01:12:20.963232 MEAN_MOTION = 2.12709114 ECCENTRICITY = .00046554 INCLINATION = 64.7592 RA_OF_ASC_NODE = 312.0581 ARG_OF_PERICENTER = 49.6429 MEAN_ANOMALY = 310.4698 EPHEMERIS_TYPE = 0 CLASSIFICATION_TYPE = U NORAD_CAT_ID = 100460 ELEMENT_SET_NO = 999 REV_AT_EPOCH = 22 BSTAR = 0 MEAN_MOTION_DOT = -.32000E-6 MEAN_MOTION_DDOT = 0